KLM1042 EGBB-EHAM

Flight info

Callsign KLM1042
Flight time 0h 50m
Altitude 31000
Route DTY P166 BANTO P155 SIVDA P137 REDFA
Aircraft B738/M-SDE2E3FGHIRWXY/LB1

Departure

Time 2026-04-29 15:09
Airport Birmingham Airport (EGBB)

Arrival

Time 2026-04-29 15:59
Airport Amsterdam Airport Schiphol (EHAM)
Time Latitude Longitude Altitude Speed Heading
2026-04-29 14:19 52.45294 -1.73800 322 ft 0 kts 146°
2026-04-29 15:00 52.45310 -1.73817 322 ft 4 kts 146°
2026-04-29 15:00 52.45328 -1.73837 322 ft 4 kts 153°
2026-04-29 15:00 52.45352 -1.73849 321 ft 4 kts 186°
2026-04-29 15:01 52.45373 -1.73833 322 ft 3 kts 236°
2026-04-29 15:01 52.45364 -1.73854 322 ft 1 kts 236°
2026-04-29 15:01 52.45364 -1.73855 322 ft 0 kts 236°
2026-04-29 15:03 52.45358 -1.73868 322 ft 4 kts 235°
2026-04-29 15:04 52.45328 -1.73939 322 ft 10 kts 235°
2026-04-29 15:04 52.45319 -1.74066 322 ft 14 kts 296°
2026-04-29 15:04 52.45372 -1.74240 320 ft 18 kts 297°
2026-04-29 15:04 52.45429 -1.74423 321 ft 18 kts 296°
2026-04-29 15:05 52.45492 -1.74590 322 ft 17 kts 320°
2026-04-29 15:05 52.45603 -1.74717 317 ft 23 kts 326°
2026-04-29 15:05 52.45749 -1.74878 309 ft 27 kts 327°
2026-04-29 15:05 52.45892 -1.75039 305 ft 24 kts 323°
2026-04-29 15:06 52.46026 -1.75185 305 ft 23 kts 326°
2026-04-29 15:06 52.46155 -1.75329 302 ft 22 kts 326°
2026-04-29 15:06 52.46282 -1.75468 303 ft 22 kts 325°
2026-04-29 15:06 52.46407 -1.75609 302 ft 22 kts 326°
2026-04-29 15:07 52.46535 -1.75754 303 ft 21 kts 328°
2026-04-29 15:07 52.46627 -1.75862 307 ft 10 kts 306°
2026-04-29 15:07 52.46615 -1.75964 305 ft 11 kts 237°
2026-04-29 15:07 52.46566 -1.76073 306 ft 11 kts 213°
2026-04-29 15:08 52.46502 -1.76044 306 ft 9 kts 144°
2026-04-29 15:08 52.46436 -1.75971 308 ft 22 kts 145°
2026-04-29 15:08 52.46089 -1.75582 308 ft 98 kts 146°
2026-04-29 15:08 52.45344 -1.74756 333 ft 158 kts 144°
2026-04-29 15:09 52.44397 -1.73749 1060 ft 156 kts 143°
2026-04-29 15:09 52.43484 -1.72765 1918 ft 160 kts 142°
2026-04-29 15:09 52.42513 -1.71694 2419 ft 182 kts 142°
2026-04-29 15:09 52.41397 -1.70440 2851 ft 199 kts 140°
2026-04-29 15:10 52.40068 -1.69595 3460 ft 213 kts 160°
2026-04-29 15:10 52.38604 -1.69069 4093 ft 218 kts 159°
2026-04-29 15:10 52.37212 -1.68249 4954 ft 208 kts 146°
2026-04-29 15:10 52.35970 -1.67078 5758 ft 203 kts 131°
2026-04-29 15:11 52.35189 -1.65215 6415 ft 206 kts 113°
2026-04-29 15:11 52.34794 -1.62806 6664 ft 234 kts 100°
2026-04-29 15:11 52.34503 -1.60114 7282 ft 244 kts 100°
2026-04-29 15:11 52.34152 -1.57358 8021 ft 251 kts 108°
2026-04-29 15:12 52.33376 -1.54776 8905 ft 255 kts 117°
2026-04-29 15:12 52.32818 -1.53073 9443 ft 259 kts 117°
2026-04-29 15:12 52.31682 -1.49540 10546 ft 265 kts 117°
2026-04-29 15:12 52.30790 -1.46887 11426 ft 269 kts 119°
2026-04-29 15:13 52.29837 -1.44242 12261 ft 273 kts 120°
2026-04-29 15:13 52.28863 -1.41553 13137 ft 276 kts 120°
2026-04-29 15:13 52.27888 -1.38846 14082 ft 276 kts 120°
2026-04-29 15:13 52.26909 -1.36121 14960 ft 280 kts 120°
2026-04-29 15:14 52.25931 -1.33400 15847 ft 283 kts 120°
2026-04-29 15:14 52.24931 -1.30609 16699 ft 286 kts 120°
2026-04-29 15:14 52.23921 -1.27796 17547 ft 289 kts 120°
2026-04-29 15:14 52.22902 -1.24949 18378 ft 292 kts 120°
2026-04-29 15:15 52.21871 -1.22079 19170 ft 295 kts 120°
2026-04-29 15:15 52.20823 -1.19173 19912 ft 299 kts 120°
2026-04-29 15:15 52.19759 -1.16226 20640 ft 304 kts 120°
2026-04-29 15:15 52.18907 -1.13070 21352 ft 309 kts 103°
2026-04-29 15:16 52.18766 -1.09552 21936 ft 320 kts 88°
2026-04-29 15:16 52.19347 -1.05898 22068 ft 347 kts 72°
2026-04-29 15:16 52.20297 -1.02164 22200 ft 367 kts 71°
2026-04-29 15:16 52.21343 -0.98251 22327 ft 385 kts 70°
2026-04-29 15:17 52.22425 -0.94170 22581 ft 397 kts 70°
2026-04-29 15:17 52.23509 -0.89998 23088 ft 402 kts 71°
2026-04-29 15:17 52.24586 -0.85788 23672 ft 403 kts 71°
2026-04-29 15:17 52.25520 -0.81465 24192 ft 405 kts 76°
2026-04-29 15:18 52.26320 -0.77049 24654 ft 408 kts 77°
2026-04-29 15:18 52.27092 -0.72558 25061 ft 413 kts 77°
2026-04-29 15:18 52.27871 -0.68008 25484 ft 418 kts 77°
2026-04-29 15:18 52.28665 -0.63429 25931 ft 421 kts 77°
2026-04-29 15:19 52.29477 -0.58811 26316 ft 425 kts 77°
2026-04-29 15:19 52.30305 -0.54142 26685 ft 430 kts 77°
2026-04-29 15:19 52.31137 -0.49438 27082 ft 433 kts 77°
2026-04-29 15:19 52.31966 -0.44751 27460 ft 436 kts 76°
2026-04-29 15:20 52.32821 -0.39993 27922 ft 437 kts 76°
2026-04-29 15:20 52.33672 -0.35215 28414 ft 437 kts 76°
2026-04-29 15:20 52.34511 -0.30456 28938 ft 436 kts 76°
2026-04-29 15:20 52.35329 -0.25678 29382 ft 436 kts 79°
2026-04-29 15:21 52.35811 -0.20800 29806 ft 434 kts 89°
2026-04-29 15:21 52.35824 -0.15885 30285 ft 431 kts 94°
2026-04-29 15:21 52.35740 -0.11003 30919 ft 426 kts 94°
2026-04-29 15:21 52.35670 -0.06183 31286 ft 422 kts 93°
2026-04-29 15:22 52.35625 -0.01436 31302 ft 414 kts 93°
2026-04-29 15:22 52.35284 0.07953 31330 ft 412 kts 99°
2026-04-29 15:23 52.34441 0.17172 31325 ft 409 kts 100°
2026-04-29 15:23 52.33563 0.26356 31326 ft 408 kts 100°
2026-04-29 15:24 52.32712 0.35526 31334 ft 408 kts 99°
2026-04-29 15:24 52.31875 0.44705 31331 ft 408 kts 99°
2026-04-29 15:25 52.31035 0.53889 31333 ft 409 kts 99°
2026-04-29 15:25 52.30186 0.63091 31334 ft 410 kts 99°
2026-04-29 15:26 52.29331 0.72291 31339 ft 410 kts 99°
2026-04-29 15:26 52.28467 0.81499 31333 ft 410 kts 99°
2026-04-29 15:27 52.27602 0.90646 31330 ft 410 kts 99°
2026-04-29 15:27 52.26724 0.99840 31333 ft 410 kts 99°
2026-04-29 15:28 52.25835 1.09083 31329 ft 409 kts 99°
2026-04-29 15:28 52.24945 1.18258 31332 ft 409 kts 99°
2026-04-29 15:29 52.24055 1.27352 31331 ft 408 kts 99°
2026-04-29 15:30 52.22247 1.45600 31332 ft 407 kts 99°
2026-04-29 15:30 52.21334 1.54698 31334 ft 406 kts 99°
2026-04-29 15:31 52.20415 1.63783 31333 ft 406 kts 99°
2026-04-29 15:31 52.19493 1.72823 31298 ft 401 kts 99°
2026-04-29 15:31 52.19036 1.77287 30969 ft 394 kts 99°
2026-04-29 15:32 52.18586 1.81650 30554 ft 387 kts 99°
2026-04-29 15:32 52.18144 1.85932 30143 ft 381 kts 99°
2026-04-29 15:32 52.17705 1.90165 29702 ft 376 kts 99°
2026-04-29 15:32 52.17271 1.94335 29247 ft 372 kts 99°
2026-04-29 15:33 52.16842 1.98455 28800 ft 367 kts 99°
2026-04-29 15:33 52.16414 2.02534 28358 ft 363 kts 99°
2026-04-29 15:33 52.15990 2.06569 27921 ft 360 kts 99°
2026-04-29 15:33 52.15569 2.10562 27487 ft 356 kts 99°
2026-04-29 15:34 52.15150 2.14519 27058 ft 353 kts 99°
2026-04-29 15:34 52.14873 2.17128 26773 ft 352 kts 99°
2026-04-29 15:34 52.14457 2.21041 26348 ft 350 kts 99°
2026-04-29 15:34 52.14040 2.24950 25927 ft 354 kts 99°
2026-04-29 15:35 52.13610 2.28970 25492 ft 365 kts 99°
2026-04-29 15:35 52.13172 2.33058 25027 ft 366 kts 99°
2026-04-29 15:35 52.12734 2.37117 24563 ft 361 kts 99°
2026-04-29 15:35 52.12301 2.41112 24127 ft 357 kts 99°
2026-04-29 15:36 52.11888 2.45071 23686 ft 353 kts 95°
2026-04-29 15:36 52.12030 2.49013 23267 ft 348 kts 78°
2026-04-29 15:36 52.12814 2.52690 22970 ft 343 kts 64°
2026-04-29 15:36 52.13980 2.56105 22679 ft 350 kts 61°
2026-04-29 15:37 52.15243 2.59545 22359 ft 356 kts 60°
2026-04-29 15:37 52.16529 2.62997 22032 ft 356 kts 60°
2026-04-29 15:37 52.17805 2.66433 21697 ft 352 kts 60°
2026-04-29 15:37 52.19061 2.69841 21388 ft 349 kts 60°
2026-04-29 15:38 52.20298 2.73228 21071 ft 347 kts 60°
2026-04-29 15:38 52.21521 2.76602 20761 ft 345 kts 60°
2026-04-29 15:38 52.22733 2.79962 20457 ft 343 kts 60°
2026-04-29 15:38 52.23938 2.83314 20150 ft 342 kts 60°
2026-04-29 15:39 52.25137 2.86658 19844 ft 341 kts 60°
2026-04-29 15:39 52.26332 2.89993 19540 ft 340 kts 60°
2026-04-29 15:39 52.27522 2.93320 19234 ft 339 kts 60°
2026-04-29 15:39 52.28710 2.96644 18930 ft 339 kts 60°
2026-04-29 15:40 52.29894 2.99964 18630 ft 338 kts 60°
2026-04-29 15:40 52.31074 3.03279 18324 ft 337 kts 60°
2026-04-29 15:40 52.32252 3.06589 18019 ft 336 kts 60°
2026-04-29 15:40 52.33410 3.09845 17733 ft 335 kts 60°
2026-04-29 15:41 52.34578 3.13137 17434 ft 334 kts 60°
2026-04-29 15:41 52.35741 3.16418 17131 ft 333 kts 60°
2026-04-29 15:41 52.36899 3.19690 16833 ft 331 kts 60°
2026-04-29 15:41 52.38047 3.22938 16540 ft 329 kts 60°
2026-04-29 15:42 52.39189 3.26171 16238 ft 327 kts 60°
2026-04-29 15:42 52.40321 3.29380 15956 ft 324 kts 60°
2026-04-29 15:42 52.41446 3.32572 15664 ft 323 kts 60°
2026-04-29 15:42 52.42564 3.35750 15378 ft 321 kts 60°
2026-04-29 15:43 52.43675 3.38912 15091 ft 319 kts 60°
2026-04-29 15:43 52.44749 3.42081 14801 ft 318 kts 65°
2026-04-29 15:43 52.45404 3.45525 14526 ft 316 kts 76°
2026-04-29 15:43 52.45886 3.49039 14240 ft 315 kts 77°
2026-04-29 15:44 52.46359 3.52547 13956 ft 314 kts 77°
2026-04-29 15:44 52.46834 3.56038 13679 ft 313 kts 77°
2026-04-29 15:44 52.47315 3.59521 13393 ft 312 kts 76°
2026-04-29 15:44 52.47800 3.62990 13112 ft 312 kts 76°
2026-04-29 15:45 52.48287 3.66449 12837 ft 310 kts 76°
2026-04-29 15:45 52.48773 3.69887 12553 ft 309 kts 76°
2026-04-29 15:45 52.49257 3.73307 12279 ft 307 kts 76°
2026-04-29 15:45 52.49740 3.76716 12002 ft 306 kts 76°
2026-04-29 15:46 52.50220 3.80109 11725 ft 304 kts 76°
2026-04-29 15:46 52.50697 3.83477 11451 ft 303 kts 76°
2026-04-29 15:46 52.51173 3.86837 11179 ft 302 kts 76°
2026-04-29 15:46 52.51642 3.90182 10911 ft 298 kts 77°
2026-04-29 15:47 52.52100 3.93446 10640 ft 290 kts 77°
2026-04-29 15:47 52.52315 3.96684 10363 ft 284 kts 94°
2026-04-29 15:47 52.51887 3.99782 10275 ft 273 kts 105°
2026-04-29 15:47 52.51215 4.02708 9938 ft 273 kts 109°
2026-04-29 15:48 52.50495 4.05546 9765 ft 265 kts 110°
2026-04-29 15:48 52.49782 4.08348 9436 ft 266 kts 110°
2026-04-29 15:48 52.49079 4.11143 9190 ft 265 kts 109°
2026-04-29 15:48 52.48389 4.13907 8946 ft 264 kts 110°
2026-04-29 15:49 52.47687 4.16732 8704 ft 263 kts 109°
2026-04-29 15:49 52.47002 4.19502 8456 ft 262 kts 109°
2026-04-29 15:49 52.46324 4.22240 8223 ft 263 kts 110°
2026-04-29 15:49 52.45632 4.25050 7985 ft 262 kts 110°
2026-04-29 15:50 52.44952 4.27819 7742 ft 262 kts 110°
2026-04-29 15:50 52.44280 4.30541 7512 ft 261 kts 110°
2026-04-29 15:50 52.43600 4.33295 7289 ft 260 kts 110°
2026-04-29 15:50 52.42762 4.35914 7037 ft 263 kts 127°
2026-04-29 15:51 52.41300 4.37719 6829 ft 267 kts 150°
2026-04-29 15:51 52.39493 4.38449 6566 ft 273 kts 174°
2026-04-29 15:51 52.37597 4.38273 6334 ft 273 kts 180°
2026-04-29 15:51 52.35705 4.38005 6078 ft 273 kts 180°
2026-04-29 15:52 52.33818 4.37740 5828 ft 271 kts 180°
2026-04-29 15:52 52.31939 4.37488 5567 ft 270 kts 180°
2026-04-29 15:52 52.30072 4.37246 5312 ft 267 kts 179°
2026-04-29 15:52 52.28239 4.37010 5074 ft 263 kts 179°
2026-04-29 15:53 52.26421 4.36778 4841 ft 259 kts 179°
2026-04-29 15:53 52.24681 4.37043 4580 ft 246 kts 153°
2026-04-29 15:53 52.23345 4.38577 4392 ft 231 kts 129°
2026-04-29 15:53 52.22460 4.40681 4193 ft 221 kts 114°
2026-04-29 15:54 52.21811 4.42903 3995 ft 216 kts 112°
2026-04-29 15:54 52.21185 4.45126 3807 ft 213 kts 111°
2026-04-29 15:54 52.20853 4.47435 3615 ft 209 kts 91°
2026-04-29 15:54 52.20827 4.49744 3441 ft 205 kts 91°
2026-04-29 15:55 52.20848 4.52088 3058 ft 208 kts 78°
2026-04-29 15:55 52.21474 4.54165 2761 ft 202 kts 60°
2026-04-29 15:55 52.22184 4.56086 2480 ft 193 kts 60°
2026-04-29 15:55 52.22870 4.57896 2213 ft 183 kts 59°
2026-04-29 15:56 52.23508 4.59579 1984 ft 167 kts 60°
2026-04-29 15:56 52.24084 4.61100 1797 ft 150 kts 59°
2026-04-29 15:56 52.24609 4.62476 1576 ft 135 kts 59°
2026-04-29 15:56 52.25100 4.63764 1421 ft 136 kts 59°
2026-04-29 15:57 52.25593 4.65052 1243 ft 132 kts 58°
2026-04-29 15:57 52.26084 4.66338 1053 ft 133 kts 58°
2026-04-29 15:57 52.26573 4.67612 852 ft 132 kts 58°
2026-04-29 15:57 52.27055 4.68888 725 ft 133 kts 58°
2026-04-29 15:58 52.27564 4.70194 540 ft 137 kts 58°
2026-04-29 15:58 52.28064 4.71524 352 ft 138 kts 58°
2026-04-29 15:58 52.28578 4.72848 155 ft 137 kts 58°
2026-04-29 15:58 52.29076 4.74151 5 ft 129 kts 58°
2026-04-29 15:59 52.29488 4.75226 -4 ft 91 kts 58°
2026-04-29 15:59 52.29745 4.75893 -3 ft 49 kts 58°
2026-04-29 15:59 52.29909 4.76321 -5 ft 38 kts 57°
2026-04-29 15:59 52.30050 4.76560 -3 ft 23 kts 28°
2026-04-29 16:00 52.30164 4.76657 -2 ft 14 kts 26°
2026-04-29 16:00 52.30249 4.76730 -2 ft 12 kts 26°
2026-04-29 16:00 52.30308 4.76814 -2 ft 11 kts 54°
2026-04-29 16:00 52.30353 4.76930 -2 ft 13 kts 59°
2026-04-29 16:01 52.30404 4.77059 -2 ft 15 kts 58°
2026-04-29 16:01 52.30461 4.77210 -2 ft 16 kts 58°
2026-04-29 16:01 52.30518 4.77361 -2 ft 16 kts 58°
2026-04-29 16:01 52.30584 4.77524 -2 ft 18 kts 49°
2026-04-29 16:02 52.30702 4.77591 -2 ft 20 kts
2026-04-29 16:02 52.30855 4.77608 -2 ft 22 kts
2026-04-29 16:02 52.30989 4.77613 -2 ft 15 kts 345°
2026-04-29 16:02 52.31048 4.77491 -2 ft 15 kts 298°
2026-04-29 16:03 52.31072 4.77317 -2 ft 17 kts 272°
2026-04-29 16:03 52.31079 4.77121 -2 ft 17 kts 272°
2026-04-29 16:03 52.31086 4.76927 -2 ft 17 kts 272°
2026-04-29 16:03 52.31022 4.76804 -2 ft 12 kts 218°
2026-04-29 16:04 52.30963 4.76718 -2 ft 11 kts 198°
2026-04-29 16:04 52.30924 4.76713 -2 ft 3 kts 183°
2026-04-29 16:04 52.30914 4.76712 -2 ft 0 kts 183°